Date,TemperatureHighF,TemperatureAvgF,TemperatureLowF,DewpointHighF,DewpointAvgF,DewpointLowF,HumidityHigh,HumidityAvg,HumidityLow,PressureMaxIn,PressureMinIn,WindSpeedMaxMPH,WindSpeedAvgMPH,GustSpeedMaxMPH,PrecipitationSumIn
2013-1-2,33.0,32.6,32.0,14.0,13.1,13.0,45,44,43,30.13,30.10,2,1,6,0.00
2013-1-3,35.0,33.7,31.0,15.0,13.2,11.0,52,43,38,30.18,30.09,4,2,11,0.00
2013-1-5,47.0,42.6,38.0,25.0,22.4,20.0,56,45,36,30.27,30.23,2,1,8,0.00
2013-1-6,47.0,44.3,43.0,31.0,28.8,27.0,61,54,51,30.03,29.98,4,2,9,0.00
2013-1-11,47.0,46.9,46.0,45.0,44.6,43.0,92,91,89,30.19,30.11,2,0,5,0.34
2013-1-12,48.0,47.2,46.0,45.0,43.7,42.0,91,88,86,30.17,30.11,1,0,2,0.32
2013-1-13,51.0,48.7,46.0,48.0,45.2,44.0,93,88,84,30.16,30.01,4,1,8,0.02
2013-1-14,51.0,51.0,51.0,32.0,32.0,32.0,48,48,48,30.24,30.24,2,2,3,0.00
2013-1-15,41.0,40.4,40.0,27.0,25.6,25.0,56,55,54,30.29,30.24,1,0,3,0.14
2013-1-17,41.0,41.0,41.0,29.0,29.0,29.0,63,63,63,30.06,30.05,0,0,5,0.05
2013-1-20,56.0,47.8,36.0,29.0,17.8,8.0,43,30,22,30.00,29.69,11,3,21,0.00
2013-1-21,33.0,32.1,29.0,15.0,10.8,5.0,46,41,34,30.09,29.87,3,1,8,0.00
2013-1-22,26.0,22.8,18.0,5.0,-5.8,-9.0,43,28,23,30.19,30.01,5,2,16,0.00
2013-1-23,18.0,18.0,18.0,-7.0,-8.2,-10.0,32,30,27,30.20,30.19,2,0,5,0.00
2013-1-25,22.0,21.8,21.0,14.0,13.5,13.0,71,70,68,30.14,30.11,2,2,6,0.00
2013-1-26,28.0,25.6,22.0,9.0,4.0,-1.0,50,39,30,30.31,30.14,1,0,8,0.04
2013-1-27,39.0,35.2,32.0,10.0,7.1,4.0,40,31,24,30.55,30.47,2,0,4,0.00
2013-1-28,36.0,35.7,35.0,32.0,31.5,31.0,84,84,83,30.09,30.06,4,2,9,0.15
2013-1-29,45.0,42.9,37.0,41.0,38.5,32.0,86,85,83,30.16,30.04,2,1,7,0.04
2013-1-30,56.0,54.7,54.0,52.0,50.8,49.0,89,86,84,29.56,29.44,5,2,12,0.01
2013-2-1,31.0,28.4,26.0,12.0,9.7,7.0,51,45,41,30.25,29.87,4,2,12,0.00
2013-2-2,30.0,27.2,25.0,15.0,8.0,3.0,63,44,32,30.30,30.11,5,2,12,0.00
2013-2-3,33.0,30.4,27.0,17.0,16.2,15.0,66,56,50,29.97,29.81,2,0,4,0.02
2013-2-4,34.0,30.6,28.0,18.0,6.7,3.0,63,37,27,30.00,29.83,7,3,16,0.01
2013-2-8,36.0,34.0,32.0,31.0,29.7,28.0,86,84,82,30.03,29.64,2,0,8,0.27
2013-2-9,38.0,32.1,28.0,23.0,14.1,5.0,79,49,32,30.23,29.94,4,1,11,0.07
2013-2-10,39.0,33.8,27.0,20.0,12.4,6.0,57,41,27,30.51,30.38,3,1,6,0.01
2013-2-11,45.0,44.5,44.0,43.0,42.5,42.0,93,92,92,29.69,29.68,2,1,3,0.31
2013-2-12,40.0,39.4,39.0,26.0,25.2,24.0,59,56,54,29.98,29.93,2,1,8,0.01
2013-2-13,42.0,39.8,38.0,31.0,29.1,27.0,74,66,54,29.72,29.70,2,1,4,0.00
2013-2-14,42.0,41.2,40.0,33.0,31.9,29.0,73,69,63,30.02,29.94,2,1,5,0.02
2013-2-15,51.0,47.9,46.0,38.0,36.8,36.0,69,65,60,29.95,29.93,2,0,4,0.00
2013-2-16,42.0,39.1,36.0,29.0,25.9,20.0,72,59,48,29.97,29.85,2,1,6,0.02
2013-2-17,36.0,31.1,25.0,2.0,0.6,-3.0,33,27,23,29.92,29.72,4,2,11,0.00
2013-2-18,40.0,34.9,26.0,9.0,4.7,1.0,34,28,22,30.27,30.20,5,2,11,0.00
2013-2-19,45.0,44.3,43.0,41.0,39.2,36.0,87,83,77,29.71,29.70,6,2,11,0.12
2013-2-21,30.0,29.1,28.0,11.0,9.9,8.0,47,44,43,30.28,30.17,2,1,7,0.00
2013-2-24,46.0,41.1,39.0,28.0,26.1,23.0,60,55,50,29.92,29.79,2,1,8,0.01
2013-2-25,43.0,42.4,42.0,28.0,27.2,27.0,56,54,52,30.24,30.23,0,0,2,0.00
2013-2-26,43.0,39.8,39.0,35.0,32.6,27.0,84,75,52,30.24,29.97,3,2,8,0.07
2013-2-27,46.0,45.0,45.0,37.0,36.0,36.0,71,71,71,29.67,29.63,3,1,8,1.21
2013-3-2,43.0,38.6,34.0,26.0,23.8,22.0,64,55,44,29.78,29.71,3,1,10,0.00
2013-3-3,42.0,34.5,31.0,23.0,17.3,14.0,64,49,41,29.78,29.69,2,1,9,0.00
2013-3-4,46.0,42.2,37.0,21.0,19.0,17.0,47,39,33,29.89,29.78,3,1,11,0.00
2013-3-5,46.0,44.1,43.0,27.0,25.5,24.0,52,47,42,30.02,30.01,2,1,7,0.00
2013-3-6,42.0,41.4,41.0,29.0,28.4,27.0,62,59,57,29.93,29.89,3,2,7,0.02
2013-3-8,43.0,42.5,41.0,31.0,29.6,27.0,65,60,57,30.19,30.13,3,1,6,0.66
2013-3-9,59.0,51.7,41.0,32.0,21.8,15.0,62,33,21,30.33,30.19,2,0,8,0.26
2013-3-10,49.0,43.3,40.0,35.0,33.6,32.0,80,69,56,30.40,30.33,3,2,9,0.00
2013-3-11,49.0,42.2,40.0,46.0,37.0,34.0,88,81,79,30.35,30.12,2,2,8,0.00
2013-3-12,56.0,52.3,49.0,54.0,47.0,43.0,93,82,73,30.12,29.73,2,1,10,0.46
2013-3-13,51.0,46.4,42.0,32.0,29.0,27.0,60,51,42,29.89,29.85,5,2,12,0.23
2013-3-14,42.0,38.8,37.0,9.0,5.7,2.0,27,25,22,29.96,29.88,3,2,10,0.00
2013-3-15,47.0,47.0,47.0,27.0,27.0,27.0,45,45,45,29.74,29.73,2,2,5,0.00
2013-3-17,40.0,38.0,36.0,19.0,14.0,8.0,45,37,30,30.29,30.14,3,1,8,0.01
2013-3-18,34.0,33.4,33.0,30.0,29.2,28.0,85,84,83,30.16,30.06,1,0,3,0.00
2013-3-19,47.0,43.4,34.0,34.0,32.0,28.0,84,64,59,30.06,29.72,4,1,8,0.56
2013-3-20,43.0,42.0,40.0,28.0,21.4,17.0,63,45,34,29.83,29.81,0,0,3,0.00
2013-3-21,35.0,34.4,34.0,10.0,9.1,8.0,35,34,33,29.76,29.73,2,1,7,0.00
2013-3-22,33.0,33.0,33.0,11.0,11.0,11.0,40,40,39,29.76,29.75,1,1,6,0.00
2013-3-23,36.0,36.0,36.0,20.0,20.0,20.0,52,52,52,29.90,29.90,2,2,8,0.00
2013-3-24,49.0,46.2,41.0,26.0,21.5,19.0,53,38,31,29.87,29.72,2,1,7,0.00
2013-3-27,49.0,46.2,44.0,31.0,28.9,26.0,56,51,40,29.99,29.94,2,0,6,0.00
2013-3-28,44.0,44.0,44.0,30.0,30.0,30.0,57,57,57,29.99,29.99,1,1,3,0.00
2013-3-29,52.0,49.3,47.0,28.0,27.1,26.0,48,42,36,30.15,30.10,2,0,4,0.00
2013-3-30,61.0,54.3,46.0,31.0,26.1,21.0,52,35,21,30.19,30.09,3,1,8,0.00
2013-3-31,54.0,52.3,49.0,40.0,36.6,31.0,68,55,43,30.11,29.90,7,4,17,0.00
2013-4-1,48.0,47.6,47.0,37.0,30.6,23.0,66,53,37,29.82,29.75,1,0,4,0.09
2013-4-2,42.0,41.6,41.0,11.0,10.6,10.0,29,28,27,30.08,30.05,4,3,9,0.00
2013-4-3,36.0,35.8,35.0,14.0,13.2,13.0,42,40,38,30.19,30.18,3,1,11,0.00
2013-4-5,55.0,50.7,45.0,21.0,18.3,16.0,35,28,21,30.00,29.87,2,1,6,0.00
2013-4-6,54.0,48.3,42.0,31.0,20.0,13.0,65,35,20,30.34,30.00,4,2,11,0.00
2013-4-7,55.0,51.3,42.0,45.0,40.4,27.0,74,66,49,30.33,30.03,10,3,17,0.00
2013-4-8,54.0,54.0,54.0,45.0,45.0,45.0,71,71,71,30.03,30.03,0,0,4,0.00
2013-4-11,50.0,50.0,50.0,44.0,42.5,42.0,79,76,74,30.05,30.03,2,0,5,0.20
2013-4-12,50.0,50.0,50.0,42.0,42.0,42.0,74,74,74,30.05,30.05,0,0,3,0.00
2013-4-13,56.0,51.8,45.0,42.0,39.8,35.0,86,64,49,29.96,29.88,4,2,10,0.05
2013-4-14,61.0,56.6,51.0,30.0,27.5,25.0,43,33,25,30.23,30.07,1,0,8,0.00
2013-4-15,51.0,51.0,51.0,29.0,29.0,29.0,42,42,42,30.23,30.23,0,0,1,0.00
2013-4-16,61.0,61.0,61.0,54.0,54.0,54.0,79,78,78,30.17,30.17,2,1,5,0.00
2013-4-19,65.0,64.5,64.0,63.0,61.6,60.0,92,90,88,29.69,29.67,4,2,10,0.01
2013-4-20,65.0,58.4,53.0,62.0,32.6,26.0,90,40,26,30.21,29.67,5,3,17,0.10
2013-4-21,52.0,48.7,46.0,33.0,28.6,23.0,58,46,34,30.64,30.58,3,2,5,0.00
2013-4-22,49.0,48.0,46.0,34.0,33.7,32.0,59,58,57,30.64,30.53,1,0,5,0.00
2013-4-27,72.0,64.7,55.0,33.0,27.3,22.0,42,25,15,30.44,30.30,3,1,10,0.00
2013-4-28,68.0,64.4,58.0,43.0,32.4,24.0,46,31,19,30.32,30.23,6,3,13,0.00
2013-5-3,65.0,59.4,52.0,45.0,42.3,37.0,75,54,36,30.46,29.92,4,2,9,0.09
2013-5-4,64.0,64.0,64.0,45.0,45.0,45.0,51,51,51,30.29,30.29,3,3,8,0.00
2013-5-5,62.0,56.9,51.0,45.0,43.6,40.0,77,62,47,30.29,30.24,5,2,11,0.00
2013-5-9,59.0,58.7,58.0,58.0,57.7,57.0,97,97,96,29.95,29.94,0,0,2,0.00
2013-5-10,67.0,65.9,65.0,59.0,58.2,57.0,77,76,72,29.93,29.91,2,1,6,0.00
2013-5-11,72.0,65.4,63.0,65.0,62.3,60.0,96,90,77,29.82,29.72,4,1,8,0.52
2013-5-12,69.0,62.6,58.0,44.0,31.4,24.0,41,31,23,29.91,29.70,6,3,16,0.25
2013-5-13,51.0,50.5,50.0,34.0,32.6,30.0,54,50,45,30.11,30.09,2,1,6,0.00
2013-5-19,58.0,57.7,57.0,58.0,57.7,57.0,100,99,99,30.32,30.21,4,2,11,0.46
2013-5-20,81.0,76.7,71.0,67.0,65.5,64.0,78,69,62,30.01,29.96,2,0,6,0.02
2013-5-21,87.0,83.7,80.0,68.0,68.0,68.0,66,60,54,29.86,29.84,2,1,11,0.00
2013-5-24,50.0,49.4,48.0,47.0,45.9,44.0,89,87,86,29.95,29.88,2,1,5,0.26
2013-5-25,55.0,53.1,47.0,46.0,42.9,39.0,90,69,57,30.00,29.91,2,1,13,0.35
2013-5-26,70.0,66.1,60.0,40.0,35.9,33.0,42,33,27,30.21,30.02,6,1,11,0.02
2013-5-27,77.0,71.0,59.0,45.0,39.1,32.0,46,32,22,30.24,30.12,4,1,10,0.00
2013-5-28,69.0,61.0,58.0,56.0,53.4,45.0,94,78,46,30.24,30.17,2,1,9,0.44
2013-5-30,87.0,86.1,85.0,67.0,67.0,67.0,55,53,52,30.12,30.12,2,2,5,0.00
2013-5-31,84.0,84.0,84.0,64.0,63.7,63.0,51,51,50,30.02,30.02,1,1,4,0.00
2013-6-1,90.0,85.8,82.0,69.0,68.2,66.0,62,56,48,30.01,29.91,3,2,11,0.00
2013-6-2,89.0,84.8,79.0,70.0,67.4,63.0,66,56,45,29.85,29.78,4,2,11,0.00
2013-6-3,73.0,72.2,71.0,69.0,67.7,67.0,87,85,84,29.84,29.82,1,0,4,0.46
2013-6-5,70.0,65.9,63.0,55.0,51.1,45.0,75,60,41,30.16,30.14,2,2,6,0.00
2013-6-6,65.0,63.9,63.0,61.0,60.0,59.0,89,87,85,30.05,30.03,3,2,11,0.02
2013-6-8,78.0,76.0,75.0,65.0,64.0,63.0,70,67,64,29.91,29.89,4,2,8,2.42
2013-6-9,82.0,80.6,74.0,61.0,58.6,57.0,63,47,44,30.16,30.11,3,1,6,0.00
2013-6-10,68.0,65.6,65.0,66.0,64.8,64.0,100,97,94,30.12,29.91,3,1,8,0.77
2013-6-11,79.0,74.6,72.0,65.0,62.2,60.0,69,65,62,29.72,29.64,4,2,11,0.19
2013-6-15,83.0,81.2,78.0,56.0,53.3,50.0,46,38,33,30.00,29.93,4,1,9,0.09
2013-6-16,79.0,77.1,76.0,66.0,65.3,64.0,71,67,60,29.84,29.80,3,2,14,0.00
2013-6-17,83.0,79.2,77.0,65.0,64.5,64.0,66,61,53,29.88,29.84,4,1,9,0.20
2013-6-19,80.0,78.1,72.0,57.0,49.4,47.0,58,37,32,30.07,30.03,3,1,6,0.12
2013-6-22,85.0,77.8,73.0,63.0,59.2,55.0,59,53,46,30.27,30.14,4,2,8,0.00
2013-6-23,88.0,82.3,76.0,72.0,70.0,68.0,88,69,51,30.15,30.06,4,1,8,0.01
2013-6-24,84.0,82.9,82.0,68.0,62.9,61.0,59,52,50,29.99,29.98,4,2,7,0.00
2013-6-25,85.0,84.5,84.0,69.0,68.5,68.0,59,59,59,29.83,29.81,3,3,8,0.00
2013-6-27,77.0,77.0,77.0,73.0,73.0,73.0,88,88,88,29.78,29.78,2,0,3,0.00
2013-6-28,86.0,83.0,79.0,72.0,70.3,69.0,75,66,57,29.53,29.51,4,1,11,0.14
2013-6-29,78.0,76.3,75.0,70.0,70.0,70.0,84,81,77,29.61,29.60,2,1,5,0.02
2013-6-30,86.0,79.6,76.0,75.0,73.0,72.0,92,81,67,29.86,29.81,4,2,9,0.01
2013-7-1,77.0,74.8,73.0,74.0,72.8,71.0,96,94,88,30.03,29.96,4,2,9,0.56
2013-7-3,86.0,82.9,79.0,76.0,74.6,73.0,85,76,68,30.24,30.19,3,1,10,0.07
2013-7-4,91.0,86.8,82.0,76.0,74.1,71.0,82,67,54,30.26,30.18,4,2,8,0.71
2013-7-5,92.0,89.2,87.0,71.0,69.8,69.0,57,53,49,30.10,30.10,3,2,10,0.00
2013-7-6,94.0,90.9,86.0,74.0,71.2,69.0,68,53,46,30.13,30.03,4,2,9,0.00
2013-7-7,94.0,91.6,89.0,74.0,74.0,74.0,61,57,53,30.03,30.00,2,1,11,0.00
2013-7-8,91.0,88.5,83.0,71.0,68.7,67.0,67,52,46,30.04,29.97,3,2,11,0.00
2013-7-10,85.0,84.5,84.0,72.0,71.9,71.0,67,66,64,29.85,29.84,2,1,5,0.22
2013-7-12,80.0,76.4,73.0,71.0,68.7,66.0,90,77,64,30.05,30.02,1,0,4,0.05
2013-7-13,83.0,81.9,81.0,75.0,73.9,73.0,79,77,75,30.23,30.23,0,0,2,0.23
2013-7-14,93.0,89.3,85.0,74.0,71.4,69.0,66,56,50,30.30,30.24,4,2,11,0.01
2013-7-15,94.0,93.2,93.0,70.0,69.8,69.0,47,46,45,30.14,30.14,1,0,2,0.00
2013-7-19,99.0,94.9,87.0,78.0,75.6,73.0,74,55,44,29.95,29.86,5,2,15,0.00
2013-7-21,82.0,79.6,78.0,71.0,68.4,65.0,78,69,57,29.95,29.93,3,2,7,0.04
2013-7-22,88.0,82.1,78.0,75.0,74.0,73.0,90,77,61,29.91,29.84,4,2,9,0.02
2013-7-23,84.0,83.2,83.0,72.0,71.5,71.0,69,68,65,29.59,29.58,4,1,8,0.26
2013-7-26,83.0,80.5,79.0,62.0,60.6,60.0,55,51,46,30.01,29.99,2,0,6,0.01
2013-7-27,84.0,81.5,75.0,68.0,64.0,60.0,80,56,47,30.06,29.98,4,2,10,0.00
2013-7-28,75.0,73.6,73.0,71.0,70.8,70.0,94,91,85,29.99,29.95,2,1,6,0.09
2013-7-29,87.0,82.6,72.0,70.0,63.4,54.0,91,54,35,30.06,30.01,4,2,11,0.21
2013-7-31,83.0,82.8,82.0,59.0,58.8,58.0,45,45,44,30.14,30.13,3,1,6,0.00
2013-8-1,76.0,76.0,76.0,67.0,67.0,67.0,74,74,74,29.96,29.96,3,3,5,0.00
2013-8-4,75.0,73.5,73.0,54.0,53.1,52.0,51,49,47,29.96,29.96,2,1,6,0.00
2013-8-5,82.0,76.8,72.0,58.0,50.2,45.0,62,40,28,30.06,29.96,4,1,8,0.00
2013-8-6,75.0,73.6,73.0,60.0,59.7,58.0,64,62,55,30.12,30.11,4,2,9,0.00
2013-8-8,75.0,75.0,75.0,71.0,71.0,71.0,88,88,88,30.03,30.03,0,0,4,0.00
2013-8-9,80.0,78.7,78.0,75.0,74.3,74.0,88,86,83,29.86,29.83,2,1,5,0.05
2013-8-10,86.0,82.5,79.0,64.0,62.2,58.0,61,50,46,30.01,29.96,4,1,8,0.02
2013-8-11,84.0,78.6,74.0,63.0,57.4,54.0,69,49,39,30.13,30.04,4,2,8,0.00
2013-8-12,84.0,78.3,72.0,72.0,69.0,67.0,94,74,61,30.02,29.94,3,0,8,0.31
2013-8-13,78.0,74.8,73.0,69.0,67.6,67.0,82,79,73,29.74,29.70,3,1,6,0.76
2013-8-15,76.0,66.8,73.0,52.0,36.2,-99.9,45,42,41,30.14,30.07,0,0,4,0.00
2013-8-16,73.0,72.7,72.0,56.0,54.8,54.0,57,53,51,30.20,30.18,2,1,4,0.00
2013-8-17,84.0,78.0,73.0,61.0,57.8,55.0,62,50,42,30.28,30.24,3,2,8,0.00
2013-8-18,79.0,74.6,72.0,61.0,58.3,55.0,69,57,48,30.25,30.14,2,0,4,0.00
2013-8-20,82.0,80.8,80.0,68.0,67.6,67.0,66,64,62,30.11,30.08,0,0,3,0.00
2013-8-23,82.0,80.0,78.0,59.0,57.9,56.0,48,47,44,30.02,29.98,0,0,3,0.00
2013-8-24,82.0,75.8,68.0,59.0,54.5,51.0,65,49,34,30.34,30.27,2,0,5,0.00
2013-8-25,71.0,71.0,71.0,60.0,60.0,60.0,68,68,68,30.40,30.40,3,3,6,0.00
2013-8-26,81.0,80.3,80.0,67.0,66.7,66.0,65,64,61,29.96,29.95,0,0,3,0.00
2013-8-31,86.0,81.7,76.0,74.0,72.6,71.0,86,75,67,29.87,29.79,4,1,9,0.00
2013-9-1,85.0,81.3,78.0,74.0,73.3,71.0,86,77,69,29.83,29.80,6,2,8,0.01
2013-9-2,82.0,79.5,78.0,75.0,74.2,74.0,89,84,79,29.78,29.71,1,0,7,0.06
2013-9-3,82.0,77.9,75.0,61.0,58.4,57.0,56,51,48,29.87,29.79,1,0,8,0.19
2013-9-4,74.0,74.0,74.0,60.0,60.0,60.0,62,62,62,29.98,29.97,3,2,8,0.00
2013-9-5,74.0,71.8,68.0,60.0,51.2,43.0,62,50,38,30.15,29.97,3,1,6,0.00
2013-9-6,68.0,68.0,68.0,43.0,43.0,43.0,40,40,40,30.15,30.15,0,0,2,0.00
2013-9-7,80.0,75.0,68.0,57.0,51.9,47.0,59,46,32,30.09,29.93,4,2,9,0.00
2013-9-8,85.0,80.0,74.0,66.0,56.8,43.0,61,46,30,29.98,29.82,2,1,8,0.00
2013-9-9,73.0,70.4,65.0,54.0,50.2,44.0,56,49,37,30.25,30.18,4,1,10,0.00
2013-9-10,84.0,84.0,84.0,73.0,73.0,73.0,70,70,70,30.08,30.08,0,0,2,0.00
2013-9-14,70.0,66.3,61.0,51.0,49.4,48.0,62,55,48,30.08,29.98,3,1,8,0.00
2013-9-15,73.0,68.8,67.0,55.0,51.2,44.0,66,55,36,30.14,30.09,4,1,8,0.00
2013-9-16,68.0,66.7,66.0,54.0,53.6,53.0,65,63,59,30.16,30.11,1,0,2,0.03
2013-9-17,63.0,60.0,59.0,43.0,42.3,40.0,54,52,43,30.36,30.34,4,1,8,0.00
2013-9-20,68.0,66.9,66.0,61.0,60.1,59.0,83,79,73,30.02,30.00,4,1,8,0.00
2013-9-21,77.0,73.9,66.0,68.0,65.3,61.0,83,75,66,30.02,29.75,8,4,16,0.00
2013-9-22,72.0,68.3,64.0,52.0,48.2,46.0,53,49,45,29.82,29.76,4,1,7,0.53
2013-9-23,64.0,61.5,60.0,47.0,45.9,45.0,59,56,53,30.02,29.98,2,1,7,0.00
2013-9-25,72.0,67.5,65.0,55.0,50.9,48.0,69,56,43,29.92,29.88,2,0,5,0.00
2013-9-26,66.0,64.6,64.0,57.0,56.4,56.0,76,76,74,30.06,30.04,2,1,4,0.00
2013-9-28,73.0,73.0,73.0,53.0,53.0,53.0,50,50,50,30.26,30.26,0,0,1,0.00
2013-9-29,67.0,63.4,62.0,55.0,54.1,53.0,78,72,64,30.11,30.09,3,1,7,0.00
2013-9-30,65.0,64.2,64.0,57.0,57.0,57.0,78,77,76,30.00,30.00,0,0,4,0.00
2013-10-2,82.0,79.5,78.0,63.0,62.5,62.0,60,56,52,29.94,29.91,1,0,3,0.00
2013-10-4,83.0,78.5,71.0,66.0,65.4,65.0,81,65,56,30.06,29.97,2,1,4,0.00
2013-10-5,75.0,70.2,67.0,65.0,64.4,64.0,91,82,71,30.09,30.04,3,2,8,0.04
2013-10-6,70.0,69.3,68.0,68.0,67.2,67.0,96,93,91,30.10,30.04,4,1,8,0.01
2013-10-7,64.0,63.2,63.0,61.0,58.3,57.0,91,84,80,29.92,29.88,2,2,12,0.20
2013-10-10,64.0,63.3,63.0,57.0,56.3,56.0,77,77,77,30.09,30.09,0,0,3,0.01
2013-10-11,68.0,68.0,68.0,59.0,59.0,59.0,74,74,74,30.05,30.05,0,0,2,0.00
2013-10-12,73.0,70.6,68.0,55.0,48.2,36.0,58,46,26,30.18,30.14,2,0,6,0.00
2013-10-15,62.0,61.6,61.0,49.0,49.0,49.0,65,64,63,30.16,30.14,0,0,3,0.00
2013-10-16,62.0,62.0,62.0,60.0,59.5,59.0,93,91,89,29.95,29.94,2,1,5,0.00
2013-10-18,62.0,61.2,61.0,45.0,44.2,44.0,54,54,53,29.95,29.94,2,2,8,0.01
2013-10-19,64.0,62.1,60.0,50.0,47.2,44.0,69,58,49,29.97,29.91,3,1,7,0.00
2013-10-20,64.0,61.1,58.0,39.0,36.8,33.0,50,41,34,30.03,29.93,3,1,10,0.00
2013-10-21,67.0,63.5,57.0,47.0,41.5,35.0,65,46,33,30.14,30.02,4,2,11,0.00
2013-10-22,68.0,64.4,55.0,50.0,48.3,41.0,58,56,52,29.80,29.75,4,2,10,0.00
2013-10-23,56.0,53.6,51.0,41.0,37.6,35.0,65,55,47,29.80,29.61,2,1,5,0.00
2013-10-25,54.0,51.9,46.0,36.0,32.7,29.0,64,48,38,30.22,30.11,4,2,9,0.00
2013-10-26,54.0,54.0,54.0,33.0,31.4,31.0,44,42,41,30.12,30.12,2,2,10,0.00
2013-10-28,60.0,58.2,57.0,39.0,37.1,36.0,49,45,43,30.25,30.21,1,0,6,0.00
2013-10-29,53.0,52.1,51.0,34.0,33.9,33.0,51,49,47,30.37,30.35,0,0,2,0.00
2013-10-31,65.0,65.0,65.0,60.0,60.0,60.0,84,83,83,29.93,29.93,3,2,8,0.04
2013-11-2,67.0,61.6,58.0,51.0,45.2,42.0,62,55,45,29.76,29.62,2,1,8,0.00
2013-11-3,52.0,50.7,49.0,37.0,34.4,30.0,64,54,48,30.23,30.13,1,0,6,0.00
2013-11-4,43.0,42.8,42.0,22.0,20.4,17.0,43,41,35,30.66,30.63,1,0,4,0.00
2013-11-5,52.0,52.0,52.0,42.0,41.4,41.0,68,67,66,30.55,30.55,2,1,4,0.00
2013-11-8,45.0,44.5,44.0,28.0,27.5,27.0,52,50,48,30.21,30.18,2,1,8,0.00
2013-11-9,47.0,45.1,43.0,30.0,28.5,28.0,56,53,48,30.28,30.22,4,2,7,0.00
2013-11-10,60.0,57.9,54.0,38.0,36.8,36.0,50,45,43,29.87,29.85,6,4,9,0.00
2013-11-12,36.0,35.5,35.0,31.0,30.6,30.0,84,82,81,30.12,30.12,1,0,5,0.07
2013-11-18,62.0,58.6,56.0,33.0,30.6,27.0,39,34,32,29.74,29.66,4,2,16,0.10
2013-11-19,42.0,41.4,41.0,25.0,24.2,24.0,50,50,49,30.25,30.23,1,0,5,0.00
2013-11-20,42.0,41.2,41.0,15.0,14.7,13.0,34,33,30,30.58,30.58,0,0,2,0.00
2013-11-21,52.0,51.5,51.0,44.0,43.5,43.0,75,75,75,30.43,30.43,2,1,5,0.00
2013-11-22,56.0,54.9,54.0,51.0,50.1,50.0,88,84,81,29.96,29.91,2,2,8,0.05
2013-11-23,54.0,54.0,54.0,50.0,50.0,50.0,87,87,87,29.91,29.91,1,1,5,0.00
2013-11-24,33.0,29.4,27.0,2.0,0.1,-2.0,34,28,23,30.36,30.17,2,1,9,0.00
2013-11-27,40.0,38.6,37.0,36.0,30.6,25.0,88,73,62,29.67,29.53,3,2,15,1.36
2013-11-28,39.0,36.5,34.0,17.0,10.2,4.0,44,33,26,30.46,30.22,3,1,11,0.06
2013-11-29,41.0,36.7,34.0,21.0,17.4,15.0,46,45,44,30.70,30.58,2,0,6,0.00
2013-11-30,39.0,35.8,35.0,29.0,17.1,-99.9,68,52,33,30.75,30.43,2,1,6,0.00
2013-12-1,51.0,48.0,45.0,36.0,33.9,32.0,66,58,50,30.19,30.06,2,1,4,0.00
2013-12-2,44.0,44.0,44.0,39.0,39.0,39.0,82,82,81,29.91,29.91,0,0,2,0.00
2013-12-3,50.0,50.0,50.0,38.0,36.9,36.0,64,61,59,29.96,29.95,1,0,3,0.00
2013-12-4,48.0,48.0,48.0,38.0,38.0,38.0,68,68,68,30.11,30.11,0,0,3,0.00
2013-12-5,58.0,57.7,57.0,55.0,54.4,53.0,90,89,88,30.00,29.98,2,0,4,0.02
2013-12-6,42.0,41.3,41.0,40.0,40.0,40.0,95,95,94,30.14,30.09,2,0,4,0.50
2013-12-7,42.0,39.3,38.0,26.0,24.5,24.0,57,55,52,30.40,30.35,1,0,5,0.52
2013-12-8,33.0,33.0,33.0,17.0,16.2,16.0,51,50,49,30.56,30.55,2,1,4,0.00
2013-12-9,39.0,38.3,38.0,39.0,37.5,36.0,99,97,93,30.03,29.97,4,2,10,0.22
2013-12-10,33.0,31.9,31.0,27.0,23.9,21.0,78,71,65,30.08,30.01,6,3,14,0.12
2013-12-12,32.0,30.3,29.0,5.0,2.5,1.0,36,30,27,30.36,30.25,3,1,8,0.01
2013-12-14,28.0,26.9,26.0,22.0,21.3,20.0,82,79,75,30.49,30.32,2,1,6,0.01
2013-12-15,42.0,37.8,33.0,34.0,30.0,23.0,91,74,58,29.83,29.57,4,2,14,0.73
2013-12-17,29.0,27.6,27.0,25.0,22.3,21.0,85,81,78,29.98,29.95,0,0,0,0.00
2013-12-18,40.0,36.1,27.0,27.0,22.9,20.0,78,59,51,30.14,29.95,5,2,11,0.13
2013-12-20,52.0,51.8,51.0,44.0,39.7,37.0,78,64,56,30.01,29.99,4,2,10,0.00
2013-12-21,63.0,59.8,51.0,50.0,49.0,44.0,78,68,63,29.99,29.90,2,1,4,0.00
2013-12-23,60.0,55.7,52.0,58.0,54.0,50.0,96,94,93,30.01,29.93,2,0,8,0.34
2013-12-24,44.0,39.6,29.0,26.0,19.3,5.0,55,44,35,30.33,30.09,2,1,6,0.06
2013-12-25,28.0,28.0,28.0,5.0,4.4,2.0,36,35,32,30.52,30.51,1,1,4,0.00
2013-12-26,37.0,35.5,34.0,25.0,22.8,19.0,65,59,53,30.26,30.17,4,3,10,0.00
2013-12-27,41.0,39.7,38.0,24.0,22.3,21.0,56,50,45,30.33,30.28,1,1,8,0.00
2013-12-28,56.0,54.5,53.0,29.0,27.8,27.0,37,35,35,30.10,30.08,5,4,12,0.00
2013-12-29,43.0,42.5,42.0,42.0,41.5,41.0,95,95,95,29.52,29.46,1,0,4,0.76
2013-12-30,42.0,40.2,39.0,31.0,27.4,25.0,65,60,57,30.02,29.96,2,1,5,0.40
2013-12-31,33.0,32.1,32.0,22.0,20.9,19.0,65,63,55,30.12,30.09,6,4,13,0.00
2014-1-1,34.0,34.0,34.0,18.0,18.0,18.0,52,52,52,30.30,30.28,1,0,3,0.00
2014-1-2,34.0,26.0,22.0,20.0,19.0,17.0,81,75,52,30.28,29.70,3,1,6,0.00